Orbital Elements at Epoch 2459200.5 (2020-Dec-17.0) TDB
Reference: JPL 24 (heliocentric ecliptic J2000)
Element | Value | Uncertainty (1-sigma) | Units |
e | .1327969051778473 | 3.7019e-08 | |
a | 2.326594834761667 | 8.0157e-09 | au |
q | 2.017630241102553 | 8.5322e-08 | au |
i | 4.507451544003187 | 3.579e-06 | deg |
node | 336.395797006216 | 5.0317e-05 | deg |
peri | 79.39894866380165 | 5.2822e-05 | deg |
M | 108.3956782453873 | 1.406e-05 | deg |
tp | 2458810.208554303909 (2019-Nov-22.70855430) | 5.0883e-05 | TDB |
period | 1296.222531423404 3.55 | 6.6987e-06 1.834e-08 | d yr |
n | .2777300897591079 | 1.4353e-09 | deg/d |
Q | 2.635559428420782 | 9.0802e-09 | au |
|
| | Orbit Determination Parameters
Additional Information
|